Time,TemperatureF,DewpointF,PressureIn,WindDirection,WindDirectionDegrees,WindSpeedMPH,WindSpeedGustMPH,Humidity,HourlyPrecipIn,Conditions,Clouds,dailyrainin,SolarRadiationWatts/m^2,SoftwareType,DateUTC
2013-08-28 12:44:00,82.0,70.0,-100.00,North,349,4.0,9.0,67,0.00,,,0.00,509.000000,,2013-08-28 17:44:00,
2013-08-28 12:52:00,82.0,70.0,-100.00,North,349,4.0,9.0,67,0.00,,,0.00,509.000000,,2013-08-28 17:52:00,
2013-08-28 13:02:00,82.0,70.0,-100.00,North,349,4.0,9.0,67,0.00,,,0.00,509.000000,,2013-08-28 18:02:00,
2013-08-28 13:42:00,85.0,69.0,-100.00,NNW,330,3.0,11.0,59,0.00,,,0.00,627.000000,,2013-08-28 18:42:00,
2013-08-28 13:53:00,85.0,69.0,-100.00,NNW,330,3.0,11.0,59,0.00,,,0.00,627.000000,,2013-08-28 18:53:00,
2013-08-28 14:02:00,85.0,69.0,-100.00,NNW,330,3.0,11.0,59,0.00,,,0.00,627.000000,,2013-08-28 19:02:00,
2013-08-28 14:42:00,86.0,68.0,-100.00,WNW,289,3.0,8.0,56,0.00,,,0.00,719.000000,,2013-08-28 19:42:00,
2013-08-28 14:52:00,86.0,68.0,-100.00,WNW,289,3.0,8.0,56,0.00,,,0.00,719.000000,,2013-08-28 19:52:00,
2013-08-28 15:03:00,86.0,68.0,-100.00,WNW,289,3.0,8.0,56,0.00,,,0.00,719.000000,,2013-08-28 20:03:00,
2013-08-28 15:43:00,85.0,68.0,-100.00,North,4,3.0,8.0,57,0.00,,,0.00,521.000000,,2013-08-28 20:43:00,
2013-08-28 15:52:00,85.0,68.0,-100.00,North,4,3.0,8.0,57,0.00,,,0.00,521.000000,,2013-08-28 20:52:00,
2013-08-28 16:01:00,85.0,68.0,-100.00,North,4,3.0,8.0,57,0.00,,,0.00,521.000000,,2013-08-28 21:01:00,
2013-08-28 16:06:00,85.0,69.0,-100.00,NW,308,3.0,8.0,58,0.00,,,0.00,472.000000,,2013-08-28 21:06:00,
2013-08-28 16:44:00,85.0,69.0,-100.00,NW,308,3.0,8.0,58,0.00,,,0.00,472.000000,,2013-08-28 21:44:00,
2013-08-28 16:57:00,85.0,69.0,-100.00,NW,308,3.0,8.0,58,0.00,,,0.00,472.000000,,2013-08-28 21:57:00,
2013-08-28 17:43:00,83.0,68.0,-100.00,NNW,338,3.0,5.0,61,0.00,,,0.00,259.000000,,2013-08-28 22:43:00,
2013-08-28 17:54:00,83.0,68.0,-100.00,NNW,338,3.0,5.0,61,0.00,,,0.00,259.000000,,2013-08-28 22:54:00,
2013-08-28 18:03:00,83.0,68.0,-100.00,NNW,338,3.0,5.0,61,0.00,,,0.00,259.000000,,2013-08-28 23:03:00,
2013-08-28 18:42:00,78.0,69.0,-100.00,North,4,2.0,4.0,74,0.00,,,0.00,82.000000,,2013-08-28 23:42:00,
2013-08-28 18:53:00,78.0,69.0,-100.00,North,4,2.0,4.0,74,0.00,,,0.00,82.000000,,2013-08-28 23:53:00,
2013-08-28 19:03:00,78.0,69.0,-100.00,North,4,2.0,4.0,74,0.00,,,0.00,82.000000,,2013-08-29 00:03:00,
2013-08-28 20:04:00,76.0,71.0,-100.00,NNW,342,2.0,4.0,85,0.00,,,0.00,38.000000,,2013-08-29 01:04:00,
2013-08-28 20:42:00,73.0,71.0,-100.00,NNW,339,3.0,4.0,94,0.00,,,0.00,1.000000,,2013-08-29 01:42:00,
2013-08-28 20:52:00,73.0,71.0,-100.00,NNW,339,3.0,4.0,94,0.00,,,0.00,1.000000,,2013-08-29 01:52:00,
2013-08-28 21:03:00,73.0,71.0,-100.00,NNW,339,3.0,4.0,94,0.00,,,0.00,1.000000,,2013-08-29 02:03:00,
2013-08-28 21:52:00,71.0,69.0,-100.00,NNW,331,3.0,5.0,92,0.00,,,0.00,0.000000,,2013-08-29 02:52:00,
2013-08-28 22:02:00,71.0,69.0,-100.00,NNW,331,3.0,5.0,92,0.00,,,0.00,0.000000,,2013-08-29 03:02:00,
2013-08-28 22:06:00,70.0,68.0,-100.00,NW,324,4.0,6.0,92,0.00,,,0.00,0.000000,,2013-08-29 03:06:00,
2013-08-28 22:45:00,70.0,68.0,-100.00,NW,324,4.0,6.0,92,0.00,,,0.00,0.000000,,2013-08-29 03:45:00,
2013-08-28 22:57:00,70.0,68.0,-100.00,NW,324,4.0,6.0,92,0.00,,,0.00,0.000000,,2013-08-29 03:57:00,
2013-08-28 23:46:00,71.0,67.0,-100.00,NW,316,3.0,7.0,88,0.00,,,0.00,0.000000,,2013-08-29 04:46:00,
2013-08-28 23:54:00,71.0,67.0,-100.00,NW,316,3.0,7.0,88,0.00,,,0.00,0.000000,,2013-08-29 04:54:00,